Lapse_Rate
4.5 4.0 2.5 2.5 6.3 6.5 6.5 6.5 6.5 6.5 6.5 6.1 4.9 5.3 6.0 5.5 6.4 6.5 4.5 4.2 5.0 5.2 5.8 6.4 6.9 7.3 9.6 9.6 9.2 9.3 9.4 9.1 9.6 9.1 9.3 9.4 9.5 9.5 9.4 9.5 9.2 9.4 9.4 9.4 9.3 9.3 9.5 9.5 9.5
4.2 4.3 2.1 2.5 6.5 6.5 6.5 6.5 6.5 6.5 5.3 3.1 4.4 5.5 5.2 6.5 6.3 4.7 4.8 4.9 5.0 5.0 5.4 6.0 6.4 8.2 9.6 9.4 9.1 9.3 9.5 9.5 9.4 9.4 9.3 9.5 9.4 9.4 9.4 9.4 9.4 9.4 9.4 9.4 9.4 9.3 9.4 9.4 9.4
5.0 3.9 3.6 6.5 6.5 6.5 6.5 6.5 6.5 5.9 3.7 5.8 5.2 4.4 5.8 6.1 6.0 4.9 3.6 4.4 4.5 4.6 5.5 6.0 6.4 9.4 9.5 9.5 9.5 9.3 9.4 9.5 9.4 9.4 9.2 8.9 9.4 9.5 9.4 9.3 9.1 9.4 9.4 9.4 9.4 9.4 9.4 9.4 9.4
3.5 2.8 2.8 6.5 6.5 6.5 6.5 6.5 5.8 5.6 5.2 4.1 4.0 5.9 5.7 5.5 5.7 3.6 3.7 4.1 4.0 4.4 5.3 5.7 6.1 6.9 7.2 8.4 9.4 9.4 9.0 8.1 7.0 8.4 8.0 8.2 9.6 9.5 9.5 9.4 9.2 9.5 9.5 9.5 9.5 9.5 9.5 9.5 9.4
1.8 2.4 6.5 6.5 6.5 6.5 6.5 5.5 5.1 6.4 5.8 5.2 5.3 6.3 6.0 5.2 3.3 2.8 2.8 4.3 3.2 3.9 5.1 5.7 6.0 6.3 6.7 6.7 7.6 8.0 8.1 8.8 8.6 9.5 9.5 9.5 8.9 9.3 9.5 9.4 9.5 9.5 9.5 9.5 9.5 9.4 9.5 9.3 9.0
3.4 3.5 6.5 6.5 6.5 6.5 6.3 5.5 5.8 5.7 5.7 4.6 4.0 5.3 5.4 4.2 3.9 2.9 3.3 3.1 4.2 4.1 5.0 6.4 7.5 7.2 8.3 8.0 8.2 9.2 9.6 9.6 9.5 9.4 8.0 6.8 6.8 7.6 8.4 8.7 9.4 9.5 9.4 9.5 9.3 8.9 8.8 9.1 9.2
5.0 6.5 6.5 6.5 6.5 6.5 6.5 5.3 5.0 5.8 5.9 6.0 3.5 6.2 5.6 5.5 4.1 2.7 2.5 3.3 3.8 4.2 4.4 5.0 5.3 5.5 6.5 8.5 9.1 9.5 9.6 9.6 9.4 8.5 6.1 5.4 5.5 5.8 6.8 7.8 9.5 9.3 9.2 9.3 9.2 9.3 9.2 9.0 8.0
1.6 5.4 6.5 6.5 6.5 6.5 6.0 5.8 5.1 5.4 6.2 5.1 4.2 5.9 5.4 4.6 3.2 2.0 2.2 2.0 2.4 3.0 3.6 3.7 3.7 4.4 5.1 5.9 7.8 8.1 8.0 7.4 6.5 6.1 5.6 5.1 4.1 5.1 6.1 7.6 9.3 9.3 6.7 6.5 7.1 8.6 8.8 7.5 5.5
3.2 6.5 6.5 6.5 6.5 6.5 5.3 6.2 5.0 3.8 4.4 4.1 2.9 2.6 3.9 2.8 2.1 2.4 2.7 2.1 2.3 2.8 2.5 2.9 3.4 3.7 4.2 4.7 5.1 4.8 5.8 5.6 4.8 4.1 4.9 3.4 3.6 3.5 4.7 6.6 7.0 6.7 5.9 5.7 5.7 5.6 5.2 5.0 4.3
4.0 6.5 6.5 6.4 6.3 6.5 5.5 5.6 4.4 5.5 5.1 4.9 3.7 2.3 1.6 1.8 1.7 2.1 2.2 2.0 2.7 2.7 2.3 2.4 3.2 3.3 3.6 3.6 3.3 3.5 3.2 3.2 3.1 3.0 3.3 3.3 2.8 3.2 3.7 5.0 5.6 5.8 5.3 4.9 5.3 5.6 4.8 3.5 2.1
5.9 6.5 6.4 6.3 5.9 4.9 5.3 5.2 5.0 4.4 6.5 3.3 2.9 2.0 2.4 2.0 1.9 2.0 1.7 1.9 2.2 2.1 1.8 2.0 2.6 2.9 3.2 3.0 2.8 3.1 3.0 2.8 2.8 2.9 3.0 3.0 2.6 2.5 2.9 3.0 3.6 3.5 3.9 3.2 3.5 3.6 3.5 3.0 2.5
6.4 6.1 6.2 6.2 5.8 5.4 5.4 4.6 5.6 4.4 5.6 3.6 1.5 1.5 1.8 2.0 1.7 1.5 1.3 1.5 1.6 1.8 2.2 2.0 2.4 2.6 2.7 3.1 2.8 2.6 3.0 2.7 2.6 2.7 2.9 3.0 2.6 2.0 2.2 2.7 3.1 3.3 3.2 3.0 3.1 2.5 3.0 3.2 3.5
6.4 6.3 5.9 5.4 4.7 4.5 5.0 5.7 5.5 4.4 3.2 1.0 1.7 2.3 2.1 2.0 1.7 1.8 1.8 2.0 1.5 1.7 2.1 1.8 2.4 2.4 2.6 2.5 2.3 2.4 2.7 2.2 2.6 2.5 2.7 2.8 2.3 1.5 1.9 2.2 2.6 2.9 3.0 2.7 2.6 2.2 2.1 2.4 2.8
5.7 5.9 5.9 6.0 5.9 5.8 6.2 6.1 5.7 4.9 1.1 1.1 2.2 2.0 1.6 1.7 1.4 1.5 1.4 1.4 0.1 1.3 1.5 1.7 2.4 2.8 2.7 2.2 2.3 2.6 2.2 2.4 2.9 2.5 2.9 3.0 2.6 1.9 1.7 1.8 2.2 2.5 2.6 3.1 2.9 2.3 2.0 2.0 2.1
4.8 6.5 6.4 6.1 5.9 6.3 5.7 6.5 6.5 3.2 1.8 1.5 1.9 1.1 1.6 1.3 1.2 1.1 1.1 0.4 -0.4 -0.4 1.2 1.2 2.0 2.5 2.5 2.2 2.5 2.8 2.4 2.7 2.6 2.7 3.0 3.2 3.1 2.5 1.8 1.6 1.6 1.7 2.3 2.6 2.9 2.8 2.7 2.1 2.2
6.5 6.5 6.5 6.5 5.9 6.2 6.1 6.5 6.2 1.4 1.8 2.2 1.7 0.8 1.3 1.4 1.0 0.7 1.3 0.9 -0.6 -0.1 -0.0 0.6 3.4 2.4 2.3 2.0 2.4 2.2 2.1 2.4 2.7 2.9 3.1 3.3 3.1 3.0 2.4 1.5 1.2 1.8 2.2 1.9 1.5 0.7 0.0 0.0 -0.0
6.5 6.5 6.5 6.5 5.3 6.4 6.5 6.5 6.2 2.0 2.6 2.6 1.3 0.7 0.8 1.0 1.2 0.8 1.0 0.6 -0.2 -0.7 -0.2 0.4 0.9 0.9 1.8 1.7 1.6 1.7 1.9 1.9 2.3 2.7 2.8 3.3 3.3 3.2 2.9 1.9 2.0 2.4 2.0 1.6 0.8 1.1 0.2 -0.1 0.2
6.5 6.5 6.5 6.5 6.5 6.5 6.5 6.5 6.2 3.3 3.2 3.0 1.6 0.7 0.5 0.9 1.6 0.9 0.6 0.3 -0.1 -0.6 -0.3 0.3 0.2 0.7 1.4 0.9 0.6 0.2 0.4 0.9 2.0 2.3 2.5 3.2 3.7 3.5 3.3 2.6 2.5 2.5 2.0 1.3 1.4 0.9 1.6 1.4 0.5
6.5 6.5 6.5 6.5 6.5 6.5 6.5 6.5 6.5 3.8 4.3 3.7 1.5 0.7 0.9 0.8 1.2 0.5 0.5 0.2 -0.1 -0.6 -0.4 -0.5 -0.4 -0.4 -0.9 -0.7 -0.8 -1.2 -0.9 -0.6 0.4 1.8 3.0 3.6 3.4 3.8 3.2 2.5 2.6 2.4 1.5 0.8 1.6 1.3 1.3 1.3 0.7
6.5 6.5 6.5 6.5 6.5 6.5 6.5 6.5 6.5 5.2 5.9 4.8 3.4 1.9 1.2 0.7 0.0 -0.1 0.2 -0.3 -0.4 -0.2 -0.7 -0.7 -0.4 -0.5 -0.5 -0.7 -1.0 -0.9 -1.1 -1.1 0.7 2.0 2.6 3.1 3.3 3.7 3.2 3.0 2.7 2.5 1.7 1.9 1.6 1.7 1.9 2.4 3.4
6.5 6.5 6.5 6.5 6.5 6.5 6.5 6.5 6.5 6.4 5.7 4.7 3.6 1.9 1.3 0.9 0.6 -0.9 -0.5 -0.5 -1.0 -1.2 -1.2 -0.7 -0.7 -0.6 -0.6 -0.1 -0.6 -1.0 -1.2 -0.8 -0.4 -0.1 0.4 2.4 3.1 3.3 3.4 3.2 3.0 2.7 2.3 2.0 1.7 2.0 3.3 3.2 3.7
6.5 6.5 6.5 6.5 6.5 6.5 6.5 6.5 6.5 6.5 6.5 5.7 3.2 1.2 1.7 -0.1 -0.1 -0.1 0.3 -0.4 -1.1 -0.7 -1.5 -0.8 -0.5 -0.6 -0.7 -0.5 -1.1 -1.1 -1.1 -0.7 -0.9 -0.3 0.2 1.6 2.5 2.9 3.3 3.2 3.3 2.9 2.8 2.0 2.1 4.5 3.5 3.3 4.1
6.5 6.5 6.5 6.5 6.5 6.5 6.5 6.5 6.5 6.5 6.5 6.5 3.6 1.0 0.6 -0.6 -0.3 -0.4 -0.3 0.4 -0.5 -0.6 -1.7 -1.0 -0.9 -0.7 -0.9 -1.9 -1.4 -1.9 -2.0 -2.0 -1.1 -1.0 -0.3 -0.2 1.6 2.2 2.9 2.9 3.0 2.6 2.7 2.8 2.5 2.8 3.3 3.2 3.7
6.5 6.5 6.5 6.5 6.5 6.5 6.5 6.5 6.5 6.5 6.5 6.5 5.5 0.7 -0.4 -1.3 -1.9 -0.6 -0.6 -0.2 -0.4 -2.0 -1.9 -2.0 -1.0 -0.8 -1.2 -1.8 -2.0 -2.3 -2.3 -2.0 -1.8 -1.3 -1.2 -0.8 -0.4 0.8 2.2 2.7 2.6 2.7 2.3 2.3 2.5 2.5 2.5 3.3 3.4
6.5 6.5 6.5 6.5 6.5 6.5 6.5 6.5 6.5 6.5 6.5 6.2 5.8 2.1 -1.0 -2.2 -2.3 -2.1 -2.1 -2.0 -1.9 -3.2 -2.0 -1.6 -1.1 -0.8 -1.5 -1.9 -2.0 -2.4 -2.4 -2.4 -2.0 -1.4 -1.3 -0.9 -0.5 -0.4 0.6 1.6 1.7 1.5 2.4 2.8 2.6 1.8 2.0 3.0 3.5
6.5 6.5 6.5 6.5 6.5 6.5 6.5 6.5 6.5 6.5 4.9 3.5 2.9 1.4 -0.8 -3.7 -3.4 -2.9 -2.6 -2.2 -1.8 -2.0 -2.0 -1.2 -1.4 -0.8 -1.5 -1.8 -1.8 -2.2 -2.0 -2.3 -2.2 -1.6 -1.5 -1.5 -1.1 -0.6 1.4 1.5 1.8 1.9 2.3 2.8 2.6 1.6 1.6 2.4 3.0
6.5 6.5 6.5 6.5 6.5 6.5 6.5 6.5 6.5 6.5 6.6 5.1 3.2 1.7 0.3 -2.3 -3.9 -3.6 -3.5 -2.8 -2.4 -2.2 -2.0 -1.7 -1.5 -1.0 -1.3 -1.4 -1.6 -2.4 -2.4 -2.3 -2.1 -1.7 -1.6 -1.6 -1.1 -0.1 0.6 1.2 1.3 1.8 1.9 2.4 2.3 1.1 1.5 2.0 2.6
6.5 6.5 6.5 6.5 6.5 6.5 6.5 6.5 6.5 6.5 6.5 6.5 5.5 1.8 -0.5 -0.8 -2.4 -3.6 -3.8 -3.5 -2.9 -2.2 -1.9 -1.8 -1.4 -1.1 -1.3 -1.4 -1.5 -1.0 -1.8 -2.2 -2.1 -1.7 -1.6 -1.6 -0.9 -0.1 0.2 0.6 1.0 1.3 1.7 2.1 1.8 1.0 1.6 1.8 2.2
6.5 6.5 6.5 6.5 6.5 6.5 6.5 6.5 6.5 6.5 6.5 6.5 4.7 1.4 -0.4 -1.3 -2.4 -3.3 -3.5 -3.8 -3.1 -2.8 -2.7 -2.4 -1.9 -1.4 -1.7 -1.6 -1.6 -1.5 -2.1 -2.2 -2.1 -1.9 -1.8 -1.5 -0.7 -0.2 -0.4 0.4 0.7 0.8 1.0 1.6 1.0 1.1 1.5 2.0 2.4
6.5 6.5 6.5 6.5 6.5 6.5 6.5 6.5 6.5 6.5 5.6 5.2 3.1 1.8 0.5 0.0 -1.4 -2.8 -3.3 -4.1 -4.1 -3.5 -3.5 -2.8 -2.1 -1.6 -1.1 -1.2 -1.6 -1.8 -1.9 -2.3 -2.1 -1.8 -1.9 -0.9 -1.1 -0.0 -0.2 0.5 0.3 0.8 1.1 1.2 1.0 1.2 2.2 2.1 2.5
Wind_Speed
2 4 3 4 4 5 2 1 1 3 3 3 3 6 8 3 3 3 1 3 11 11 8 8 7 7 7 7 10 11 10 10 10 11 12 11 12 12 14 13 15 16 17 17 17 16 16 18 18
2 2 4 2 5 3 3 2 2 2 6 9 6 2 6 3 2 6 5 3 11 9 9 8 7 6 7 7 10 8 8 10 10 10 10 11 11 12 12 13 15 15 16 17 17 17 16 17 17
2 4 3 4 3 3 3 2 4 4 7 1 4 6 3 3 3 6 4 11 10 11 10 8 7 7 7 7 7 8 9 8 8 10 9 9 9 11 12 13 14 15 15 16 18 17 16 17 17
3 4 4 4 3 1 3 5 5 6 2 6 3 6 2 1 5 7 11 12 12 11 10 8 7 8 7 7 7 7 7 7 8 9 8 8 9 11 12 13 14 15 15 15 16 16 18 18 17
4 3 4 4 1 2 2 5 5 3 4 2 0 4 2 3 6 10 8 10 9 7 6 6 6 7 7 7 6 7 7 6 6 9 9 10 11 12 13 14 13 15 16 16 16 17 17 18 19
4 3 4 2 2 2 2 3 3 3 2 4 5 4 3 5 6 6 9 8 12 9 6 7 6 5 5 6 5 6 6 7 9 10 10 10 10 11 12 13 15 15 16 16 17 17 18 18 20
5 4 3 4 5 2 3 3 5 4 3 2 8 4 1 4 6 7 7 11 10 9 9 7 6 6 4 5 5 5 7 7 9 10 9 10 10 11 12 13 13 16 18 18 18 17 18 18 18
4 4 3 1 4 3 3 3 4 3 2 3 2 5 5 6 8 7 6 6 7 6 7 6 6 5 4 5 5 5 7 7 9 10 10 11 12 12 12 12 15 16 18 17 17 16 16 18 17
3 4 2 4 5 2 5 4 2 1 5 2 3 4 2 11 9 6 4 3 3 2 3 3 5 5 4 6 8 8 7 7 8 9 10 9 11 12 11 12 14 16 19 15 16 17 17 18 18
5 3 5 3 2 4 5 3 7 3 3 1 1 3 6 11 8 9 7 7 5 4 3 3 4 4 4 5 6 6 6 5 6 8 9 8 10 11 8 11 14 16 16 16 16 17 18 20 20
2 3 3 1 1 6 6 4 4 8 4 7 7 8 9 6 7 9 7 7 7 5 3 4 5 4 5 5 5 5 4 4 6 7 8 8 9 11 10 7 9 11 12 12 15 16 17 19 18
4 2 2 2 2 4 6 7 4 5 3 4 10 14 8 9 9 9 8 8 6 6 6 6 6 5 6 4 3 3 1 3 5 5 7 8 9 9 10 5 6 9 11 12 14 16 16 16 17
3 2 3 3 5 4 6 3 4 6 3 7 12 8 9 9 8 6 7 6 6 6 5 5 7 6 6 4 3 2 1 3 2 3 5 5 7 7 7 6 4 7 9 9 13 14 13 13 14
2 2 3 2 2 4 3 2 1 4 6 9 12 10 9 9 10 5 7 8 8 7 7 6 7 7 7 5 4 4 2 3 3 4 3 4 6 6 5 7 7 6 8 8 10 11 10 10 12
5 2 3 2 3 2 3 4 7 5 7 11 10 9 9 10 8 10 11 9 9 6 7 7 8 8 8 7 5 6 3 3 4 2 2 3 3 5 6 6 7 8 8 8 9 10 11 9 11
3 3 4 1 4 0 4 7 4 9 11 10 10 9 9 10 10 9 8 8 9 6 9 8 9 10 8 7 8 6 4 5 4 3 2 1 2 4 5 5 7 9 9 9 7 5 4 4 4
5 2 2 5 7 2 3 6 2 8 9 10 10 10 10 9 9 9 9 10 10 9 8 8 7 7 10 8 6 6 5 6 6 5 3 1 1 2 3 4 6 7 8 9 6 3 2 4 5
4 4 3 4 4 3 3 12 5 9 9 13 11 9 9 10 16 11 10 9 8 8 8 7 6 8 8 6 3 3 4 5 7 6 6 3 2 1 1 3 5 6 5 5 5 2 4 3 4
2 3 4 4 1 3 7 11 12 11 9 9 10 10 12 14 10 8 9 8 7 7 8 8 8 7 4 2 2 0 3 2 4 8 6 6 5 4 2 2 3 4 2 3 3 2 3 3 3
2 3 6 3 2 5 6 16 13 11 15 18 17 14 15 9 8 8 8 8 9 11 10 8 8 7 5 3 3 3 2 3 3 5 8 8 8 6 5 4 3 2 2 4 4 2 3 2 3
1 2 3 4 6 2 7 8 3 2 2 9 11 9 11 14 14 9 10 11 8 9 10 10 9 9 6 9 3 1 0 1 1 2 3 9 10 8 8 7 6 5 3 3 3 3 2 2 3
2 0 2 4 5 3 4 5 6 1 5 7 10 11 15 14 10 9 13 12 13 15 9 9 10 9 8 12 5 6 4 4 3 3 4 6 8 8 9 9 9 7 5 4 3 3 2 1 3
3 2 1 1 2 4 3 3 8 3 6 8 11 14 15 14 14 15 15 17 15 12 13 11 10 10 8 8 8 6 6 4 2 2 4 4 7 8 9 10 10 9 7 7 6 4 3 2 2
1 1 5 4 3 2 3 3 6 3 3 6 3 9 13 13 12 12 13 12 10 8 9 9 11 11 9 9 9 9 9 7 4 4 4 4 3 7 9 8 10 10 8 7 7 5 4 4 3
5 5 4 4 4 5 1 1 10 6 5 5 6 8 9 9 9 11 10 10 10 11 12 10 11 12 11 11 10 10 9 8 8 6 5 5 3 3 6 7 7 8 10 9 9 5 4 4 3
2 4 4 4 2 5 3 6 6 4 5 6 7 6 5 8 9 12 14 13 13 14 14 14 13 13 11 11 12 9 8 5 5 6 5 4 4 4 9 9 9 11 10 10 9 5 4 5 4
2 1 3 4 2 2 4 7 10 4 6 5 7 6 7 7 9 12 10 12 13 13 16 17 15 14 12 13 10 8 7 7 7 7 5 4 6 7 11 11 9 11 10 9 8 4 5 4 4
1 4 2 3 2 5 5 6 5 5 6 7 6 8 8 6 7 8 9 12 11 13 13 14 15 17 15 13 11 9 9 8 7 6 7 7 7 9 8 8 9 9 9 9 6 5 5 5 4
2 1 3 3 4 4 2 6 7 6 2 6 7 7 7 8 9 10 11 10 11 10 11 13 14 14 11 12 11 9 9 8 7 7 7 7 8 9 6 7 6 6 6 7 5 6 6 6 5
3 6 6 4 4 2 4 7 5 9 6 4 8 7 7 7 9 8 8 9 10 12 12 14 13 13 13 11 10 11 9 8 8 9 8 9 7 10 8 7 6 6 6 6 6 6 6 6 6
Wind_Direction
91 83 72 38 55 62 40 59 159 96 66 13 17 84 109 61 54 163 296 91 106 83 70 51 56 50 44 37 47 43 38 31 28 21 23 20 17 16 19 18 14 7 6 6 8 6 2 1 1
39 98 44 75 81 62 279 307 97 86 140 144 93 82 46 71 102 125 106 134 111 108 85 72 70 69 69 52 54 45 34 33 29 22 25 23 17 19 15 11 11 7 4 1 2 4 0 358 356
94 40 74 83 96 135 200 168 111 65 137 78 91 52 85 132 95 139 139 146 123 95 83 79 84 72 55 54 50 38 34 36 35 30 28 25 18 17 13 9 3 6 5 2 357 359 356 1 356
51 14 35 75 65 264 203 151 122 118 110 64 117 69 35 259 149 142 146 142 104 95 88 87 86 75 68 54 51 49 45 43 39 28 24 24 13 14 9 10 360 1 3 359 2 357 354 357 1
39 57 60 75 57 21 36 145 150 98 94 54 29 146 53 35 97 125 140 142 117 120 104 105 89 83 70 68 64 63 60 52 44 25 21 23 9 14 8 7 358 4 1 2 359 358 359 0 360
45 92 66 149 154 58 28 126 96 69 73 162 77 93 168 125 123 158 143 141 135 133 103 67 69 105 90 64 69 67 63 50 38 28 23 24 13 15 13 5 5 6 2 6 5 0 2 3 2
104 77 120 125 160 142 159 87 107 122 106 44 144 105 159 183 171 154 140 127 126 124 112 98 75 65 51 52 58 63 51 50 39 32 32 32 23 23 17 15 13 13 8 5 7 359 4 5 360
102 89 90 131 186 203 139 83 114 120 112 105 135 174 194 206 159 121 93 100 107 113 119 122 100 79 95 26 45 54 43 53 40 35 38 35 31 28 21 22 20 15 7 359 0 2 7 7 360
108 64 129 176 158 169 157 127 48 36 102 50 345 155 246 130 125 110 112 98 95 114 142 134 103 75 83 43 59 56 53 52 59 45 42 39 35 34 26 31 28 21 14 11 11 8 6 9 4
73 93 188 184 165 169 157 157 154 123 111 31 16 34 108 128 145 150 166 169 172 187 208 157 108 86 84 86 92 93 87 82 76 62 47 40 42 38 41 37 29 23 21 20 13 7 1 353 350
82 134 167 145 154 135 136 121 146 131 218 206 185 158 147 143 164 172 185 184 186 188 200 172 142 119 126 99 97 101 69 77 62 57 44 42 46 42 42 43 27 15 12 9 2 356 356 354 354
82 44 132 138 91 118 159 134 151 201 213 206 164 157 153 162 180 188 192 194 186 185 193 180 160 135 120 114 107 93 70 73 60 59 38 38 34 40 30 18 7 5 9 8 7 1 359 1 358
81 160 86 97 85 93 124 162 206 220 31 123 134 151 170 176 191 208 196 190 178 194 190 191 166 158 144 135 139 144 159 89 79 90 46 39 39 37 33 26 0 0 3 7 10 8 1 358 352
92 90 111 134 119 137 146 195 157 224 130 131 153 177 187 189 195 178 184 195 190 190 192 190 189 171 167 162 183 201 142 128 168 84 49 50 37 33 34 25 10 351 350 353 4 2 356 348 349
128 61 336 223 195 170 126 273 233 163 154 157 179 187 193 206 188 193 190 190 187 197 186 187 193 180 179 184 198 203 175 176 170 141 73 67 42 33 32 24 9 1 351 344 355 353 351 350 344
33 54 3 188 143 5 105 271 204 164 153 187 194 200 201 210 204 206 197 197 187 177 184 189 189 184 189 195 204 205 197 201 190 195 182 87 42 30 29 20 8 1 360 357 345 327 318 316 321
19 301 292 317 198 126 170 266 217 170 176 196 207 208 210 219 226 220 211 199 185 187 180 194 191 183 192 201 203 214 213 212 204 217 218 195 360 26 29 23 1 4 9 13 345 325 330 316 325
299 323 289 261 223 206 212 261 244 203 189 205 208 216 217 218 222 210 210 203 183 183 184 184 183 184 185 182 177 199 223 225 216 230 232 228 246 264 345 9 10 12 15 1 352 310 320 288 301
251 272 284 258 178 198 236 260 261 202 214 221 220 220 224 224 225 211 203 196 183 186 179 190 176 192 156 161 154 239 222 210 230 235 237 235 249 246 264 338 346 5 6 308 314 310 333 315 330
303 307 299 293 127 186 294 274 242 185 214 209 211 218 224 227 217 214 206 190 191 190 193 185 191 180 193 169 189 181 183 213 214 226 234 236 249 249 246 253 265 297 311 328 325 4 334 297 349
316 258 298 257 319 215 313 294 318 204 239 209 222 217 222 220 220 213 204 204 195 197 194 190 192 188 189 194 163 157 68 296 301 246 246 241 241 246 242 246 247 264 261 288 302 301 356 317 311
304 248 334 330 25 285 16 284 306 330 258 224 224 217 222 213 212 211 208 202 200 209 192 191 191 190 194 188 181 187 187 202 219 206 215 242 241 255 247 244 240 252 256 267 272 294 266 171 293
232 37 15 359 44 13 348 68 270 356 293 251 231 227 226 218 210 209 206 208 207 196 195 197 193 196 193 187 191 192 201 209 211 216 236 250 260 255 251 245 236 245 249 262 267 288 289 211 246
15 70 38 57 69 9 272 134 287 246 235 312 295 235 227 218 213 219 211 204 205 193 188 187 194 204 196 193 198 199 202 204 205 216 228 241 250 255 253 245 232 246 254 259 273 278 268 264 250
66 47 335 345 15 227 335 76 247 265 261 247 284 291 238 216 207 210 204 198 194 188 194 192 197 208 199 199 203 205 205 200 207 210 211 221 235 236 245 235 235 244 254 264 270 270 269 268 262
87 134 150 273 278 279 314 238 251 224 280 260 267 275 259 214 206 208 208 203 204 200 193 194 196 207 198 201 210 209 205 206 211 208 207 225 221 230 248 248 247 255 261 267 268 268 267 259 258
172 162 176 105 30 17 254 287 308 290 285 279 292 317 290 249 221 219 211 206 204 199 199 195 195 205 201 204 207 209 205 206 213 217 213 222 229 241 244 248 250 255 261 261 263 264 273 271 267
128 158 76 16 267 277 293 284 242 330 334 329 281 271 285 288 258 234 218 211 208 207 202 198 199 200 202 201 204 210 207 206 210 210 219 223 233 236 244 247 247 256 260 259 252 263 270 271 271
110 249 57 123 155 204 288 270 214 232 290 302 298 279 277 275 255 240 228 215 208 199 193 197 198 199 200 199 202 204 205 206 205 213 218 221 226 232 234 238 244 248 255 254 243 255 266 265 276
175 200 158 130 228 225 142 268 225 236 263 275 267 281 280 271 272 251 227 203 199 202 193 196 198 201 205 203 199 206 205 199 205 217 219 220 225 231 231 237 236 247 249 248 238 252 267 263 268